Location: Newark
(49.2191°N, 12.6671°E)
Time: 04:56:20
(UTC+00:00)

Transit 4A - Pass Details

Date: 28 January 2020
Orbit: 872 x 973 km, 66.8° (Epoch: 16 February)

Event Time Altitude Azimuth Distance (km) Brightness Sun altitude
Rises 08:21:59 0° 284° (WNW) 3,508 10.4 11.6°
Reaches altitude 10° 08:25:33 10° 306° (NW) 2,554 9.6 12.0°
Maximum altitude 08:29:09 16° 344° (NNW) 2,125 9.3 12.4°
Drops below altitude 10° 08:32:44 10° 22° (NNE) 2,536 10.0 12.7°
Sets 08:36:16 0° 43° (NE) 3,471 10.8 13.1°
